Regional Weather Roundup
Issued by NWS Charleston, SC

Current Version | Previous Version | Graphics & Text | Print | Product List | Glossary On
Versions: 1 2 3 4 5 6 7 8 9 10 11 12 13 14 15 16 17 18 19 20 21 22 23 24 25 26 27 28 29 30 31 32 33 34 35 36 37 38 39 40 41 42 43 44 45 46 47 48 49 50
000
ASUS42 KCHS 050613
RWRCHS

REGIONAL WEATHER ROUNDUP
NATIONAL WEATHER SERVICE CHARLESTON SC
200 AM EDT THU MAY 05 2016

NOTE: "FAIR" INDICATES FEW OR NO CLOUDS BELOW 12,000 FEET WITH NO
SIGNIFICANT WEATHER AND/OR OBSTRUCTIONS TO VISIBILITY.

NOT ALL STATIONS ARE QUALITY CONTROLLED. USE DATA WITH CAUTION...
ESPECIALLY DEWPOINT OBSERVATIONS.

SCZ027-030-031-034>040-042>050-050700-
...SOUTHEAST SOUTH CAROLINA...

CITY           SKY/WX    TMP DP  RH WIND       PRES   REMARKS
N CHARLESTON   CLEAR     61  48  62 W6        29.63F
6HR MIN TEMP:  61; 6HR MAX TEMP:  74;

WATERFRONT PRK   N/A     65  49  56 W5        29.63R
MOUNT PLEASANT FAIR      61  50  67 CALM      29.63F
JOHNS ISLAND   FAIR      61  50  67 W5        29.64F
PINOPOLIS        N/A     66  52  59 W8        29.56R
MONCKS CORNER  FAIR      54  45  71 CALM      29.63F
SUMMERVILLE    FAIR      55  50  82 CALM      29.65S
BEAUFORT MCAS  CLEAR     62  48  60 W6        29.64F
6HR MIN TEMP:  62; 6HR MAX TEMP:  73;

BEAUFORT ARPT  FAIR      64  48  55 NW6       29.64F
HILTON HEAD IS CLEAR     63  50  63 W5        29.66F
WALTERBORO     CLEAR     59  50  72 W3        29.64F
ALLENDALE      FAIR      59  48  67 CALM      29.64F

...SOUTHERN MIDLANDS AND PEE DEE...

CITY           SKY/WX    TMP DP  RH WIND       PRES   REMARKS
GEORGETOWN     FAIR      55  46  71 CALM      29.63F
KINGSTREE      FAIR      54  50  87 CALM      29.62F
ORANGEBURG     CLEAR     58  49  72 NW7       29.63F
6HR MIN TEMP:  55; 6HR MAX TEMP:  71;

BARNWELL       FAIR      57  52  82 CALM      29.66F
AIKEN          FAIR      54  45  71 W5        29.68F
MANNING        FAIR      50  48  93 CALM      29.62F
COLUMBIA       CLEAR     60  46  59 W10       29.61F
6HR MIN TEMP:  55; 6HR MAX TEMP:  70;

SUMTER         CLEAR     59  46  63 W5        29.59F
6HR MIN TEMP:  58; 6HR MAX TEMP:  69;

FLORENCE       PTCLDY    62  47  57 CALM      29.61F
6HR MIN TEMP:  62; 6HR MAX TEMP:  73;

MYRTLE BEACH   CLOUDY    63  46  55 NW8       29.62F
N MYRTLE BEACH CLOUDY    62  52  69 W6        29.58F
6HR MIN TEMP:  62; 6HR MAX TEMP:  73; 6HR PCP: TRACE;


$$

GAZ063-065-086>088-099>101-113>116-118-119-134>141-150-050700-
...SOUTHEAST GEORGIA...

CITY           SKY/WX    TMP DP  RH WIND       PRES   REMARKS
SAVANNAH ARPT  CLEAR     59  49  69 W6        29.67S
6HR MIN TEMP:  59; 6HR MAX TEMP:  74;

HUNTER AAF     CLEAR     59  51  72 W9        29.64F
6HR MIN TEMP:  59; 6HR MAX TEMP:  73;

FORT STEWART   CLEAR     60  48  63 W1        29.65F
6HR MIN TEMP:  60; 6HR MAX TEMP:  72;

STATESBORO     CLEAR     60  54  81 NW8       29.67S
SYLVANIA       CLEAR     58  53  84 NW5       29.67F
CLAXTON        FAIR      55  55 100 CALM      29.68F

...CSRA...CENTRAL AND FAR SOUTHEAST GEORGIA...

CITY           SKY/WX    TMP DP  RH WIND       PRES   REMARKS
THOMSON        PTCLDY    59  52  79 W5        29.72F
AUGUSTA-BUSH   PTCLDY    60  48  64 NW8       29.65F
6HR MIN TEMP:  56; 6HR MAX TEMP:  70;

AUGUSTA-DANIEL CLEAR     61  46  57 W7        29.66F
SWAINSBORO     FAIR      55  48  76 NW5       29.70F
VIDALIA        CLEAR     61  46  59 NW9       29.70S
EASTMAN        CLOUDY    61  50  67 NW6       29.74F
HAZLEHURST     FAIR      59  51  73 CALM      29.69F
ALMA           CLEAR     59  50  72 W5        29.70F
6HR MIN TEMP:  58; 6HR MAX TEMP:  72;

WAYCROSS       CLEAR     59  51  73 W8        29.71S
JESUP          FAIR      61  52  72 NW6       29.69F
BAXLEY         FAIR      61  50  67 W5        29.69F
BRUNSWICK      CLEAR     66  54  63 W5        29.69S
SAINT SIMONS   CLEAR     64  49  57 NW8       29.68S
6HR MIN TEMP:  64; 6HR MAX TEMP:  74;


$$

SCZ027-028-034-036>038-045-046-048>050-GAZ119-141-050700-
...LAKE AND SUPPLEMENTAL COASTAL OBSERVATIONS...

STATION/POSITION TIME  TEMP    WIND        PRES    WAVE   SWELL
                       AIR SEA DIR/SP/G            HT/PER HT/PER/DIR
                 (UTC) (F)     (DEG/KT/KT) (MB)    (FT/S) (FT/S/D)
WINYAH BAY       NOT AVBL
LAKE MURRAY      0500   64     270/ 15/ 18 1003.0F
ACE BASIN NERRS  NOT AVBL
FORT PULASKI     0500   66 75  300/ 10/ 12 1004.6F
SAPELO ISLAND    0500   64     310/  8     1005.0S

$$

ANZ835-935-AMZ111-154-330-350-352-354-370-450-454-472-050700-
...C-MAN AND BUOY OBSERVATIONS...

STATION/POSITION TIME  TEMP    WIND        PRES    WAVE   SWELL
                       AIR SEA DIR/SP/G            HT/PER HT/PER/DIR
                 (UTC) (F)     (DEG/KT/KT) (MB)    (FT/S) (FT/S/D)
BUOY 41004       0550   71 74  320/ 19/ 21 1002.0F   3/ 4   2/ 9
BUOY 41008       NOT AVBL
FOLLY BEACH CMAN 0600   61     300/  4/  5 1003.4F
CAPERS NEARSHORE 0508   68 71  320/ 12/ 17 1003.4R
FRIPP NEARSHORE  0508   69 71  320/ 16/ 19 1003.3R


STATION/POSITION TIME  TEMP    WIND        PRES    WAVE   SWELL
                       AIR SEA DIR/SP/G            HT/PER HT/PER/DIR
                 (UTC) (F)     (DEG/KT/KT) (MB)    (FT/S) (FT/S/D)
5E ST. MARYS GA  0521      71                N/A     3/ 7
FRYING PAN BUOY  0500   71 71  290/ 14/ 17 1001.5R
BUOY 41025       0550   61 70   20/ 19/ 21 1001.7F   4/ 7
CAPE LOOKOUT NC  0500   64      40/ 19/ 21 1001.6R
BUOY 41002       0550   71 73  170/ 14/ 17 1002.1F   6/ 6   3/ 70/10
BUOY 41010       0520   71 79  250/ 10/ 12 1001.8F
ST AUGUSTINE FL  0600   63 71  310/  9/ 10 1005.9R


$$




USA.gov is the U.S. government's official web portal to all federal, state and local government web resources and services.